Time,TemperatureF,DewpointF,PressureIn,WindDirection,WindDirectionDegrees,WindSpeedMPH,WindSpeedGustMPH,Humidity,HourlyPrecipIn,Conditions,Clouds,dailyrainin,SoftwareType,DateUTC
2013-06-18 00:00:00,64.0,55.6,29.92,ENE,67,0.0,0.0,74,0.00,,,-99.99,open2300 version1.11,2013-06-18 04:00:00,
2013-06-18 00:05:00,64.0,55.6,29.92,East,90,0.0,0.0,74,0.00,,,-99.99,open2300 version1.11,2013-06-18 04:05:00,
2013-06-18 00:10:00,63.7,55.2,29.93,East,90,0.0,0.0,74,0.00,,,-99.99,open2300 version1.11,2013-06-18 04:10:00,
2013-06-18 00:15:00,63.7,55.6,29.93,East,90,0.0,0.0,75,0.00,,,-99.99,open2300 version1.11,2013-06-18 04:15:00,
2013-06-18 00:20:00,63.5,55.4,29.93,East,90,0.0,0.0,75,0.00,,,-99.99,open2300 version1.11,2013-06-18 04:20:00,
2013-06-18 00:25:00,63.3,55.6,29.93,East,90,0.0,0.0,76,0.00,,,-99.99,open2300 version1.11,2013-06-18 04:25:00,
2013-06-18 00:30:00,63.3,55.6,29.97,SE,135,0.0,0.0,76,0.00,,,-99.99,open2300 version1.11,2013-06-18 04:30:00,
2013-06-18 00:40:00,63.1,55.8,29.96,SW,225,0.0,0.0,77,0.06,,,-99.99,open2300 version1.11,2013-06-18 04:40:00,
2013-06-18 00:50:00,62.4,55.8,29.94,SSE,157,0.0,0.0,79,0.08,,,-99.99,open2300 version1.11,2013-06-18 04:50:00,
2013-06-18 00:55:00,62.2,55.6,29.94,SSE,157,0.0,0.0,79,0.08,,,-99.99,open2300 version1.11,2013-06-18 04:55:00,
2013-06-18 01:05:00,61.9,55.6,29.93,SSE,157,0.0,0.0,80,0.08,,,-99.99,open2300 version1.11,2013-06-18 05:05:00,
2013-06-18 01:15:00,61.7,55.8,29.93,SSE,157,0.0,0.0,81,0.08,,,-99.99,open2300 version1.11,2013-06-18 05:15:00,
2013-06-18 01:20:00,61.5,55.6,29.92,SSE,157,0.0,0.0,81,0.08,,,-99.99,open2300 version1.11,2013-06-18 05:20:00,
2013-06-18 01:25:00,61.5,55.6,29.91,SSE,157,0.0,0.0,81,0.08,,,-99.99,open2300 version1.11,2013-06-18 05:25:00,
2013-06-18 01:30:00,61.5,56.0,29.91,SSE,157,0.0,0.0,82,0.08,,,-99.99,open2300 version1.11,2013-06-18 05:30:00,
2013-06-18 01:35:00,61.3,55.8,29.91,SSE,157,0.0,0.0,82,0.08,,,-99.99,open2300 version1.11,2013-06-18 05:35:00,
2013-06-18 01:40:00,61.2,56.0,29.91,SSE,157,0.0,0.0,83,0.00,,,-99.99,open2300 version1.11,2013-06-18 05:40:00,
2013-06-18 01:45:00,61.0,55.8,29.91,SSE,157,0.0,0.0,83,0.00,,,-99.99,open2300 version1.11,2013-06-18 05:45:00,
2013-06-18 01:50:00,61.0,55.8,29.91,ESE,112,0.0,0.0,83,0.00,,,-99.99,open2300 version1.11,2013-06-18 05:50:00,
2013-06-18 01:55:00,61.0,56.1,29.90,ESE,112,0.0,0.0,84,0.00,,,-99.99,open2300 version1.11,2013-06-18 05:55:00,
2013-06-18 02:05:00,60.4,55.6,29.90,ESE,112,0.0,0.0,84,0.00,,,-99.99,open2300 version1.11,2013-06-18 06:05:00,
2013-06-18 02:10:00,60.4,55.6,29.90,ESE,112,0.0,0.0,84,0.00,,,-99.99,open2300 version1.11,2013-06-18 06:10:00,
2013-06-18 02:15:00,60.4,55.6,29.90,ESE,112,0.0,0.0,84,0.00,,,-99.99,open2300 version1.11,2013-06-18 06:15:00,
2013-06-18 02:20:00,60.1,55.3,29.90,ESE,112,0.0,0.0,84,0.00,,,-99.99,open2300 version1.11,2013-06-18 06:20:00,
2013-06-18 02:30:00,60.1,55.3,29.90,ESE,112,0.0,0.0,84,0.00,,,-99.99,open2300 version1.11,2013-06-18 06:30:00,
2013-06-18 02:35:00,59.9,55.4,29.91,NE,45,0.0,0.0,85,0.00,,,-99.99,open2300 version1.11,2013-06-18 06:35:00,
2013-06-18 02:40:00,59.9,55.4,29.90,NE,45,0.0,0.0,85,0.00,,,-99.99,open2300 version1.11,2013-06-18 06:40:00,
2013-06-18 02:45:00,59.9,55.4,29.91,NE,45,0.0,0.0,85,0.00,,,-99.99,open2300 version1.11,2013-06-18 06:45:00,
2013-06-18 02:55:00,59.7,55.2,29.91,NE,45,0.0,0.0,85,0.00,,,-99.99,open2300 version1.11,2013-06-18 06:55:00,
2013-06-18 03:00:00,59.7,55.2,29.91,NE,45,0.0,0.0,85,0.00,,,-99.99,open2300 version1.11,2013-06-18 07:00:00,
2013-06-18 03:05:00,59.5,55.0,29.91,NE,45,0.0,0.0,85,0.00,,,-99.99,open2300 version1.11,2013-06-18 07:05:00,
2013-06-18 03:10:00,59.5,55.0,29.91,NE,45,0.0,0.0,85,0.00,,,-99.99,open2300 version1.11,2013-06-18 07:10:00,
2013-06-18 03:15:00,59.4,54.9,29.91,NE,45,0.0,0.0,85,0.00,,,-99.99,open2300 version1.11,2013-06-18 07:15:00,
2013-06-18 03:25:00,59.2,54.7,29.91,NE,45,0.0,0.0,85,0.00,,,-99.99,open2300 version1.11,2013-06-18 07:25:00,
2013-06-18 03:35:00,58.8,54.3,29.92,NE,45,0.0,0.0,85,0.00,,,-99.99,open2300 version1.11,2013-06-18 07:35:00,
2013-06-18 03:40:00,58.8,54.3,29.92,NE,45,0.0,0.0,85,0.00,,,-99.99,open2300 version1.11,2013-06-18 07:40:00,
2013-06-18 03:50:00,58.6,54.1,29.92,NE,45,0.0,0.0,85,0.00,,,-99.99,open2300 version1.11,2013-06-18 07:50:00,
2013-06-18 03:55:00,58.5,54.0,29.92,NE,45,0.0,0.0,85,0.00,,,-99.99,open2300 version1.11,2013-06-18 07:55:00,
2013-06-18 04:05:00,58.1,53.6,29.92,NE,45,0.0,0.0,85,0.00,,,-99.99,open2300 version1.11,2013-06-18 08:05:00,
2013-06-18 04:15:00,57.9,53.4,29.92,NE,45,0.0,0.0,85,0.00,,,-99.99,open2300 version1.11,2013-06-18 08:15:00,
2013-06-18 04:20:00,57.7,53.2,29.93,NE,45,0.0,0.0,85,0.00,,,-99.99,open2300 version1.11,2013-06-18 08:20:00,
2013-06-18 04:25:00,57.6,53.1,29.93,NE,45,0.0,0.0,85,0.00,,,-99.99,open2300 version1.11,2013-06-18 08:25:00,
2013-06-18 04:30:00,57.6,53.4,29.93,NE,45,0.0,0.0,86,0.00,,,-99.99,open2300 version1.11,2013-06-18 08:30:00,
2013-06-18 04:35:00,57.4,53.2,29.93,NE,45,0.0,0.0,86,0.00,,,-99.99,open2300 version1.11,2013-06-18 08:35:00,
2013-06-18 04:45:00,57.0,52.8,29.93,NE,45,0.0,0.0,86,0.00,,,-99.99,open2300 version1.11,2013-06-18 08:45:00,
2013-06-18 04:50:00,57.0,52.8,29.93,NE,45,0.0,0.0,86,0.00,,,-99.99,open2300 version1.11,2013-06-18 08:50:00,
2013-06-18 04:55:00,56.8,52.3,29.93,NE,45,0.0,0.0,85,0.00,,,-99.99,open2300 version1.11,2013-06-18 08:55:00,
2013-06-18 05:00:00,56.8,52.3,29.93,ENE,67,0.0,0.0,85,0.00,,,-99.99,open2300 version1.11,2013-06-18 09:00:00,
2013-06-18 05:05:00,56.5,52.0,29.93,ENE,67,0.0,0.0,85,0.00,,,-99.99,open2300 version1.11,2013-06-18 09:05:00,
2013-06-18 05:10:00,56.5,52.0,29.93,ENE,67,0.0,0.0,85,0.00,,,-99.99,open2300 version1.11,2013-06-18 09:10:00,
2013-06-18 05:15:00,56.3,52.1,29.93,ENE,67,0.0,0.0,86,0.00,,,-99.99,open2300 version1.11,2013-06-18 09:15:00,
2013-06-18 05:20:00,56.1,51.9,29.93,ENE,67,0.0,0.0,86,0.00,,,-99.99,open2300 version1.11,2013-06-18 09:20:00,
2013-06-18 05:25:00,55.9,51.8,29.93,East,90,0.0,0.0,86,0.00,,,-99.99,open2300 version1.11,2013-06-18 09:25:00,
2013-06-18 05:30:00,55.9,51.8,29.93,East,90,0.0,0.0,86,0.00,,,-99.99,open2300 version1.11,2013-06-18 09:30:00,
2013-06-18 05:35:00,55.9,51.8,29.93,East,90,0.0,0.0,86,0.00,,,-99.99,open2300 version1.11,2013-06-18 09:35:00,
2013-06-18 05:45:00,55.8,51.6,29.93,ESE,112,0.0,0.0,86,0.00,,,-99.99,open2300 version1.11,2013-06-18 09:45:00,
2013-06-18 05:50:00,55.6,51.4,29.94,ESE,112,0.0,0.0,86,0.00,,,-99.99,open2300 version1.11,2013-06-18 09:50:00,
2013-06-18 05:55:00,55.4,51.2,29.94,SE,135,0.0,0.0,86,0.00,,,-99.99,open2300 version1.11,2013-06-18 09:55:00,
2013-06-18 06:00:00,55.2,51.0,29.95,SE,135,0.0,0.0,86,0.00,,,-99.99,open2300 version1.11,2013-06-18 10:00:00,
2013-06-18 06:05:00,55.2,51.0,29.95,SE,135,0.0,0.0,86,0.00,,,-99.99,open2300 version1.11,2013-06-18 10:05:00,
2013-06-18 06:15:00,55.2,51.0,29.95,SE,135,0.0,0.0,86,0.00,,,-99.99,open2300 version1.11,2013-06-18 10:15:00,
2013-06-18 06:20:00,55.2,51.0,29.95,SE,135,0.0,0.0,86,0.00,,,-99.99,open2300 version1.11,2013-06-18 10:20:00,
2013-06-18 06:25:00,55.2,51.0,29.96,SE,135,0.0,0.0,86,0.00,,,-99.99,open2300 version1.11,2013-06-18 10:25:00,
2013-06-18 06:30:00,55.2,51.0,29.96,SE,135,0.0,0.0,86,0.00,,,-99.99,open2300 version1.11,2013-06-18 10:30:00,
2013-06-18 06:35:00,55.2,51.0,29.96,SE,135,0.0,0.0,86,0.00,,,-99.99,open2300 version1.11,2013-06-18 10:35:00,
2013-06-18 06:40:00,55.2,51.0,29.96,SE,135,0.0,0.0,86,0.00,,,-99.99,open2300 version1.11,2013-06-18 10:40:00,
2013-06-18 06:45:00,55.2,51.0,29.96,SE,135,0.0,0.0,86,0.00,,,-99.99,open2300 version1.11,2013-06-18 10:45:00,
2013-06-18 06:55:00,55.9,51.8,29.96,SE,135,0.0,0.0,86,0.00,,,-99.99,open2300 version1.11,2013-06-18 10:55:00,
2013-06-18 07:00:00,56.5,52.0,29.97,NE,45,0.0,0.0,85,0.00,,,-99.99,open2300 version1.11,2013-06-18 11:00:00,
2013-06-18 07:05:00,56.8,52.0,29.96,NE,45,0.0,0.0,84,0.00,,,-99.99,open2300 version1.11,2013-06-18 11:05:00,
2013-06-18 07:10:00,57.0,52.2,29.97,NE,45,0.0,0.0,84,0.00,,,-99.99,open2300 version1.11,2013-06-18 11:10:00,
2013-06-18 07:20:00,57.7,52.6,29.97,ENE,67,0.0,0.0,83,0.00,,,-99.99,open2300 version1.11,2013-06-18 11:20:00,
2013-06-18 07:25:00,57.9,52.5,29.97,ENE,67,0.0,0.0,82,0.00,,,-99.99,open2300 version1.11,2013-06-18 11:25:00,
2013-06-18 07:30:00,58.3,52.5,29.97,NE,45,0.0,0.0,81,0.00,,,-99.99,open2300 version1.11,2013-06-18 11:30:00,
2013-06-18 07:35:00,58.6,52.8,29.97,NE,45,0.0,0.0,81,0.00,,,-99.99,open2300 version1.11,2013-06-18 11:35:00,
2013-06-18 07:40:00,59.2,53.1,29.97,ESE,112,0.0,0.0,80,0.00,,,-99.99,open2300 version1.11,2013-06-18 11:40:00,
2013-06-18 07:45:00,59.5,53.4,29.97,ESE,112,0.0,0.0,80,0.00,,,-99.99,open2300 version1.11,2013-06-18 11:45:00,
2013-06-18 07:50:00,59.9,53.4,29.97,ENE,67,0.0,0.0,79,0.00,,,-99.99,open2300 version1.11,2013-06-18 11:50:00,
2013-06-18 07:55:00,60.1,53.2,29.97,NE,45,0.0,0.0,78,0.00,,,-99.99,open2300 version1.11,2013-06-18 11:55:00,
2013-06-18 08:05:00,60.4,53.6,29.98,ESE,112,0.0,0.0,78,0.00,,,-99.99,open2300 version1.11,2013-06-18 12:05:00,
2013-06-18 08:10:00,60.4,53.6,29.98,ESE,112,0.0,0.0,78,0.00,,,-99.99,open2300 version1.11,2013-06-18 12:10:00,
2013-06-18 08:15:00,60.6,53.1,29.98,NNE,22,0.0,0.0,76,0.00,,,-99.99,open2300 version1.11,2013-06-18 12:15:00,
2013-06-18 08:20:00,60.6,53.1,29.98,ESE,112,0.0,0.0,76,0.00,,,-99.99,open2300 version1.11,2013-06-18 12:20:00,
2013-06-18 08:25:00,60.6,53.1,29.98,ESE,112,0.0,0.0,76,0.00,,,-99.99,open2300 version1.11,2013-06-18 12:25:00,
2013-06-18 08:30:00,61.0,53.4,29.98,NE,45,0.0,0.0,76,0.00,,,-99.99,open2300 version1.11,2013-06-18 12:30:00,
2013-06-18 08:35:00,61.3,53.7,29.98,ESE,112,0.0,0.0,76,0.00,,,-99.99,open2300 version1.11,2013-06-18 12:35:00,
2013-06-18 08:40:00,61.5,53.9,29.98,NE,45,0.0,0.0,76,0.00,,,-99.99,open2300 version1.11,2013-06-18 12:40:00,
2013-06-18 08:45:00,61.5,53.9,29.98,East,90,0.0,0.0,76,0.00,,,-99.99,open2300 version1.11,2013-06-18 12:45:00,
2013-06-18 08:55:00,61.9,53.5,29.99,North,0,0.0,0.0,74,0.00,,,-99.99,open2300 version1.11,2013-06-18 12:55:00,
2013-06-18 09:00:00,61.7,53.0,29.99,ENE,67,0.0,0.0,73,0.00,,,-99.99,open2300 version1.11,2013-06-18 13:00:00,
2013-06-18 09:05:00,61.5,52.5,29.99,East,90,0.0,0.0,72,0.00,,,-99.99,open2300 version1.11,2013-06-18 13:05:00,
2013-06-18 09:10:00,61.5,52.8,29.99,East,90,0.0,0.0,73,0.00,,,-99.99,open2300 version1.11,2013-06-18 13:10:00,
2013-06-18 09:15:00,61.7,53.3,29.99,East,90,0.0,0.0,74,0.00,,,-99.99,open2300 version1.11,2013-06-18 13:15:00,
2013-06-18 09:25:00,62.1,53.3,30.00,NNE,22,0.0,0.0,73,0.00,,,-99.99,open2300 version1.11,2013-06-18 13:25:00,
2013-06-18 09:35:00,62.2,53.1,30.00,ENE,67,0.0,0.0,72,0.00,,,-99.99,open2300 version1.11,2013-06-18 13:35:00,
2013-06-18 09:40:00,62.4,53.3,30.00,ESE,112,0.0,0.0,72,0.00,,,-99.99,open2300 version1.11,2013-06-18 13:40:00,
2013-06-18 09:45:00,62.4,53.3,30.00,ESE,112,0.0,0.0,72,0.00,,,-99.99,open2300 version1.11,2013-06-18 13:45:00,
2013-06-18 09:50:00,62.6,53.4,30.00,East,90,0.0,0.0,72,0.00,,,-99.99,open2300 version1.11,2013-06-18 13:50:00,
2013-06-18 09:55:00,62.8,53.6,30.00,ESE,112,0.0,0.0,72,0.00,,,-99.99,open2300 version1.11,2013-06-18 13:55:00,
2013-06-18 10:05:00,63.3,53.8,30.00,NE,45,0.0,0.0,71,0.00,,,-99.99,open2300 version1.11,2013-06-18 14:05:00,
2013-06-18 10:10:00,63.3,53.8,30.00,NE,45,0.0,0.0,71,0.00,,,-99.99,open2300 version1.11,2013-06-18 14:10:00,
2013-06-18 10:20:00,63.7,53.8,30.00,NE,45,0.0,0.0,70,0.00,,,-99.99,open2300 version1.11,2013-06-18 14:20:00,
2013-06-18 10:30:00,64.0,54.5,30.01,ESE,112,0.0,0.0,71,0.00,,,-99.99,open2300 version1.11,2013-06-18 14:30:00,
2013-06-18 10:35:00,64.2,53.9,30.00,ESE,112,0.0,0.0,69,0.00,,,-99.99,open2300 version1.11,2013-06-18 14:35:00,
2013-06-18 10:40:00,64.0,53.7,30.00,ESE,112,0.0,0.0,69,0.00,,,-99.99,open2300 version1.11,2013-06-18 14:40:00,
2013-06-18 10:45:00,64.2,54.3,30.01,North,0,0.0,0.0,70,0.00,,,-99.99,open2300 version1.11,2013-06-18 14:45:00,
2013-06-18 10:50:00,64.2,54.3,30.01,SE,135,0.0,0.0,70,0.00,,,-99.99,open2300 version1.11,2013-06-18 14:50:00,
2013-06-18 10:55:00,64.6,54.7,30.01,North,0,0.0,0.0,70,0.00,,,-99.99,open2300 version1.11,2013-06-18 14:55:00,
2013-06-18 11:00:00,64.8,54.4,30.02,NE,45,0.0,0.0,69,0.00,,,-99.99,open2300 version1.11,2013-06-18 15:00:00,
2013-06-18 11:05:00,64.9,54.1,30.01,North,0,0.0,0.0,68,0.00,,,-99.99,open2300 version1.11,2013-06-18 15:05:00,
2013-06-18 11:10:00,65.1,53.9,30.02,ENE,67,0.0,0.0,67,0.00,,,-99.99,open2300 version1.11,2013-06-18 15:10:00,
2013-06-18 11:15:00,65.1,54.3,30.01,East,90,0.0,0.0,68,0.00,,,-99.99,open2300 version1.11,2013-06-18 15:15:00,
2013-06-18 11:20:00,65.3,54.5,30.01,NE,45,0.0,0.0,68,0.00,,,-99.99,open2300 version1.11,2013-06-18 15:20:00,
2013-06-18 11:25:00,65.5,54.6,30.01,NE,45,0.0,0.0,68,0.00,,,-99.99,open2300 version1.11,2013-06-18 15:25:00,
2013-06-18 11:30:00,65.7,54.4,30.01,NNE,22,0.0,0.0,67,0.00,,,-99.99,open2300 version1.11,2013-06-18 15:30:00,
2013-06-18 11:40:00,65.8,54.5,30.01,NNE,22,0.0,0.0,67,0.00,,,-99.99,open2300 version1.11,2013-06-18 15:40:00,
2013-06-18 11:45:00,65.8,54.5,30.01,NNE,22,0.0,0.0,67,0.00,,,-99.99,open2300 version1.11,2013-06-18 15:45:00,
2013-06-18 11:50:00,66.0,54.3,30.01,North,0,0.0,0.0,66,0.00,,,-99.99,open2300 version1.11,2013-06-18 15:50:00,
2013-06-18 11:55:00,66.0,54.7,30.01,ESE,112,0.0,0.0,67,0.00,,,-99.99,open2300 version1.11,2013-06-18 15:55:00,
2013-06-18 12:05:00,66.4,54.6,30.01,NW,315,0.0,0.0,66,0.00,,,-99.99,open2300 version1.11,2013-06-18 16:05:00,
2013-06-18 12:10:00,66.4,55.0,30.02,ENE,67,0.0,0.0,67,0.00,,,-99.99,open2300 version1.11,2013-06-18 16:10:00,
2013-06-18 12:20:00,66.9,55.1,30.02,North,0,0.0,0.0,66,0.00,,,-99.99,open2300 version1.11,2013-06-18 16:20:00,
2013-06-18 12:25:00,66.9,54.7,30.02,East,90,0.0,0.0,65,0.00,,,-99.99,open2300 version1.11,2013-06-18 16:25:00,
2013-06-18 12:30:00,67.1,55.3,30.02,NE,45,0.0,0.0,66,0.00,,,-99.99,open2300 version1.11,2013-06-18 16:30:00,
2013-06-18 12:40:00,67.3,54.6,30.01,NE,45,0.0,0.0,64,0.00,,,-99.99,open2300 version1.11,2013-06-18 16:40:00,
2013-06-18 12:45:00,67.1,54.0,30.01,East,90,0.0,0.0,63,0.00,,,-99.99,open2300 version1.11,2013-06-18 16:45:00,
2013-06-18 12:55:00,67.3,54.6,30.00,East,90,0.0,0.0,64,0.00,,,-99.99,open2300 version1.11,2013-06-18 16:55:00,
2013-06-18 13:00:00,67.6,55.0,30.00,ENE,67,0.0,0.0,64,0.00,,,-99.99,open2300 version1.11,2013-06-18 17:00:00,
2013-06-18 13:10:00,68.4,55.7,30.01,ENE,67,0.0,0.0,64,0.00,,,-99.99,open2300 version1.11,2013-06-18 17:10:00,
2013-06-18 13:15:00,68.5,55.4,30.00,NE,45,0.0,0.0,63,0.00,,,-99.99,open2300 version1.11,2013-06-18 17:15:00,
2013-06-18 13:20:00,68.7,55.6,30.01,NNE,22,0.0,0.0,63,0.00,,,-99.99,open2300 version1.11,2013-06-18 17:20:00,
2013-06-18 13:30:00,68.7,54.3,30.01,NNE,22,0.0,0.0,60,0.00,,,-99.99,open2300 version1.11,2013-06-18 17:30:00,
2013-06-18 13:40:00,68.7,54.3,30.01,NNW,337,0.0,0.0,60,0.00,,,-99.99,open2300 version1.11,2013-06-18 17:40:00,
2013-06-18 13:50:00,69.1,54.2,30.01,East,90,0.0,0.0,59,0.00,,,-99.99,open2300 version1.11,2013-06-18 17:50:00,
2013-06-18 13:55:00,69.1,53.7,30.01,NE,45,0.0,0.0,58,0.00,,,-99.99,open2300 version1.11,2013-06-18 17:55:00,
2013-06-18 14:00:00,69.1,53.2,30.01,NNW,337,0.0,0.0,57,0.00,,,-99.99,open2300 version1.11,2013-06-18 18:00:00,
2013-06-18 14:05:00,69.4,53.0,30.01,East,90,0.0,0.0,56,0.00,,,-99.99,open2300 version1.11,2013-06-18 18:05:00,
2013-06-18 14:10:00,69.6,53.2,30.01,NNE,22,0.0,0.0,56,0.00,,,-99.99,open2300 version1.11,2013-06-18 18:10:00,
2013-06-18 14:20:00,69.6,53.2,30.01,NNE,22,0.0,0.0,56,0.00,,,-99.99,open2300 version1.11,2013-06-18 18:20:00,
2013-06-18 14:25:00,70.0,53.0,30.01,NE,45,0.0,0.0,55,0.00,,,-99.99,open2300 version1.11,2013-06-18 18:25:00,
2013-06-18 14:30:00,70.3,52.9,30.01,East,90,0.0,0.0,54,0.00,,,-99.99,open2300 version1.11,2013-06-18 18:30:00,
2013-06-18 14:35:00,70.3,52.9,30.01,ESE,112,0.0,0.0,54,0.00,,,-99.99,open2300 version1.11,2013-06-18 18:35:00,
2013-06-18 14:45:00,70.3,52.4,30.01,ENE,67,0.0,0.0,53,0.00,,,-99.99,open2300 version1.11,2013-06-18 18:45:00,
2013-06-18 14:50:00,70.2,52.7,30.01,NNE,22,0.0,0.0,54,0.00,,,-99.99,open2300 version1.11,2013-06-18 18:50:00,
2013-06-18 14:55:00,70.2,51.7,30.01,NNE,22,0.0,0.0,52,0.00,,,-99.99,open2300 version1.11,2013-06-18 18:55:00,
2013-06-18 15:00:00,70.2,51.7,30.01,NE,45,0.0,0.0,52,0.00,,,-99.99,open2300 version1.11,2013-06-18 19:00:00,
2013-06-18 15:05:00,70.3,52.4,30.01,East,90,0.0,0.0,53,0.00,,,-99.99,open2300 version1.11,2013-06-18 19:05:00,
2013-06-18 15:10:00,70.3,51.4,30.01,NNE,22,0.0,0.0,51,0.00,,,-99.99,open2300 version1.11,2013-06-18 19:10:00,
2013-06-18 15:15:00,70.3,51.9,30.01,ESE,112,0.0,0.0,52,0.00,,,-99.99,open2300 version1.11,2013-06-18 19:15:00,
2013-06-18 15:20:00,70.3,51.4,30.01,NE,45,0.0,0.0,51,0.00,,,-99.99,open2300 version1.11,2013-06-18 19:20:00,
2013-06-18 15:25:00,70.2,51.2,30.01,North,0,0.0,0.0,51,0.00,,,-99.99,open2300 version1.11,2013-06-18 19:25:00,
2013-06-18 15:30:00,70.3,51.4,30.02,ESE,112,0.0,0.0,51,0.00,,,-99.99,open2300 version1.11,2013-06-18 19:30:00,
2013-06-18 15:35:00,70.3,51.9,30.02,ESE,112,0.0,0.0,52,0.00,,,-99.99,open2300 version1.11,2013-06-18 19:35:00,
2013-06-18 15:40:00,70.3,50.9,30.01,ENE,67,0.0,0.0,50,0.00,,,-99.99,open2300 version1.11,2013-06-18 19:40:00,
2013-06-18 15:45:00,70.3,50.9,30.02,East,90,0.0,0.0,50,0.00,,,-99.99,open2300 version1.11,2013-06-18 19:45:00,
2013-06-18 15:55:00,70.5,51.0,30.02,ENE,67,0.0,0.0,50,0.00,,,-99.99,open2300 version1.11,2013-06-18 19:55:00,
2013-06-18 16:00:00,70.7,51.7,30.02,NE,45,0.0,0.0,51,0.00,,,-99.99,open2300 version1.11,2013-06-18 20:00:00,
2013-06-18 16:05:00,70.5,50.4,30.02,ENE,67,0.0,0.0,49,0.00,,,-99.99,open2300 version1.11,2013-06-18 20:05:00,
2013-06-18 16:10:00,70.3,50.2,30.02,ESE,112,0.0,0.0,49,0.00,,,-99.99,open2300 version1.11,2013-06-18 20:10:00,
2013-06-18 16:15:00,70.2,50.1,30.02,NNE,22,0.0,0.0,49,0.00,,,-99.99,open2300 version1.11,2013-06-18 20:15:00,
2013-06-18 16:20:00,70.0,50.5,30.02,East,90,0.0,0.0,50,0.00,,,-99.99,open2300 version1.11,2013-06-18 20:20:00,
2013-06-18 16:25:00,70.2,50.1,30.02,East,90,0.0,0.0,49,0.00,,,-99.99,open2300 version1.11,2013-06-18 20:25:00,
2013-06-18 16:30:00,70.0,48.7,30.02,WSW,247,0.0,0.0,47,0.00,,,-99.99,open2300 version1.11,2013-06-18 20:30:00,
2013-06-18 16:35:00,70.0,49.3,30.02,North,0,0.0,0.0,48,0.00,,,-99.99,open2300 version1.11,2013-06-18 20:35:00,
2013-06-18 16:45:00,70.0,49.9,30.02,NNE,22,0.0,0.0,49,0.00,,,-99.99,open2300 version1.11,2013-06-18 20:45:00,
2013-06-18 16:50:00,70.0,48.7,30.02,North,0,0.0,0.0,47,0.00,,,-99.99,open2300 version1.11,2013-06-18 20:50:00,
2013-06-18 16:55:00,69.6,48.4,30.02,East,90,0.0,0.0,47,0.00,,,-99.99,open2300 version1.11,2013-06-18 20:55:00,
2013-06-18 17:00:00,69.6,47.2,30.02,ESE,112,0.0,0.0,45,0.00,,,-99.99,open2300 version1.11,2013-06-18 21:00:00,
2013-06-18 17:05:00,69.1,46.7,30.02,ESE,112,0.0,0.0,45,0.00,,,-99.99,open2300 version1.11,2013-06-18 21:05:00,
2013-06-18 17:10:00,69.1,47.3,30.02,East,90,0.0,0.0,46,0.00,,,-99.99,open2300 version1.11,2013-06-18 21:10:00,
2013-06-18 17:15:00,68.7,46.4,30.02,ENE,67,0.0,0.0,45,0.00,,,-99.99,open2300 version1.11,2013-06-18 21:15:00,
2013-06-18 17:20:00,68.7,47.0,30.02,ESE,112,0.0,0.0,46,0.00,,,-99.99,open2300 version1.11,2013-06-18 21:20:00,
2013-06-18 17:30:00,68.4,46.1,30.02,ESE,112,0.0,0.0,45,0.00,,,-99.99,open2300 version1.11,2013-06-18 21:30:00,
2013-06-18 17:35:00,68.2,46.5,30.02,ESE,112,0.0,0.0,46,0.00,,,-99.99,open2300 version1.11,2013-06-18 21:35:00,
2013-06-18 17:45:00,68.0,46.4,30.02,NE,45,0.0,0.0,46,0.00,,,-99.99,open2300 version1.11,2013-06-18 21:45:00,
2013-06-18 17:50:00,67.8,46.2,30.02,NE,45,0.0,0.0,46,0.00,,,-99.99,open2300 version1.11,2013-06-18 21:50:00,
2013-06-18 18:00:00,67.6,46.0,30.02,ESE,112,0.0,0.0,46,0.00,,,-99.99,open2300 version1.11,2013-06-18 22:00:00,
2013-06-18 18:05:00,67.6,46.0,30.02,NE,45,0.0,0.0,46,0.00,,,-99.99,open2300 version1.11,2013-06-18 22:05:00,
2013-06-18 18:10:00,67.3,46.3,30.02,East,90,0.0,0.0,47,0.00,,,-99.99,open2300 version1.11,2013-06-18 22:10:00,
2013-06-18 18:15:00,67.3,45.1,30.02,NE,45,0.0,0.0,45,0.00,,,-99.99,open2300 version1.11,2013-06-18 22:15:00,
2013-06-18 18:20:00,67.1,45.5,30.02,NE,45,0.0,0.0,46,0.00,,,-99.99,open2300 version1.11,2013-06-18 22:20:00,
2013-06-18 18:25:00,67.1,45.5,30.03,NNE,22,0.0,0.0,46,0.00,,,-99.99,open2300 version1.11,2013-06-18 22:25:00,
2013-06-18 18:30:00,66.9,45.4,30.02,East,90,0.0,0.0,46,0.00,,,-99.99,open2300 version1.11,2013-06-18 22:30:00,
2013-06-18 18:35:00,66.7,45.2,30.02,NNE,22,0.0,0.0,46,0.00,,,-99.99,open2300 version1.11,2013-06-18 22:35:00,
2013-06-18 18:45:00,66.7,45.2,30.03,NE,45,0.0,0.0,46,0.00,,,-99.99,open2300 version1.11,2013-06-18 22:45:00,
2013-06-18 18:50:00,66.7,45.8,30.03,East,90,0.0,0.0,47,0.00,,,-99.99,open2300 version1.11,2013-06-18 22:50:00,
2013-06-18 19:00:00,66.6,45.7,30.03,ENE,67,0.0,0.0,47,0.00,,,-99.99,open2300 version1.11,2013-06-18 23:00:00,
2013-06-18 19:05:00,66.4,45.5,30.03,ENE,67,0.0,0.0,47,0.00,,,-99.99,open2300 version1.11,2013-06-18 23:05:00,
2013-06-18 19:10:00,66.4,45.5,30.03,ENE,67,0.0,0.0,47,0.00,,,-99.99,open2300 version1.11,2013-06-18 23:10:00,
2013-06-18 19:20:00,66.0,45.8,30.03,East,90,0.0,0.0,48,0.00,,,-99.99,open2300 version1.11,2013-06-18 23:20:00,
2013-06-18 19:25:00,65.8,45.6,30.03,East,90,0.0,0.0,48,0.00,,,-99.99,open2300 version1.11,2013-06-18 23:25:00,
2013-06-18 19:30:00,65.8,46.2,30.03,East,90,0.0,0.0,49,0.00,,,-99.99,open2300 version1.11,2013-06-18 23:30:00,
2013-06-18 19:35:00,65.7,46.0,30.04,East,90,0.0,0.0,49,0.00,,,-99.99,open2300 version1.11,2013-06-18 23:35:00,
2013-06-18 19:40:00,65.5,45.8,30.04,ENE,67,0.0,0.0,49,0.00,,,-99.99,open2300 version1.11,2013-06-18 23:40:00,
2013-06-18 19:50:00,65.3,45.6,30.04,NE,45,0.0,0.0,49,0.00,,,-99.99,open2300 version1.11,2013-06-18 23:50:00,
2013-06-18 19:55:00,65.1,44.9,30.04,NNE,22,0.0,0.0,48,0.00,,,-99.99,open2300 version1.11,2013-06-18 23:55:00,
2013-06-18 20:00:00,64.9,44.7,30.04,ENE,67,0.0,0.0,48,0.00,,,-99.99,open2300 version1.11,2013-06-19 00:00:00,
2013-06-18 20:10:00,64.6,44.9,30.04,NNE,22,0.0,0.0,49,0.00,,,-99.99,open2300 version1.11,2013-06-19 00:10:00,
2013-06-18 20:15:00,64.2,44.6,30.04,ENE,67,0.0,0.0,49,0.00,,,-99.99,open2300 version1.11,2013-06-19 00:15:00,
2013-06-18 20:20:00,64.0,44.4,30.05,NE,45,0.0,0.0,49,0.00,,,-99.99,open2300 version1.11,2013-06-19 00:20:00,
2013-06-18 20:25:00,64.0,44.4,30.05,NE,45,0.0,0.0,49,0.00,,,-99.99,open2300 version1.11,2013-06-19 00:25:00,
2013-06-18 20:30:00,63.7,44.1,30.05,NE,45,0.0,0.0,49,0.00,,,-99.99,open2300 version1.11,2013-06-19 00:30:00,
2013-06-18 20:35:00,63.5,43.9,30.05,NE,45,0.0,0.0,49,0.00,,,-99.99,open2300 version1.11,2013-06-19 00:35:00,
2013-06-18 20:40:00,63.3,43.8,30.05,NE,45,0.0,0.0,49,0.00,,,-99.99,open2300 version1.11,2013-06-19 00:40:00,
2013-06-18 20:45:00,63.1,43.6,30.04,NE,45,0.0,0.0,49,0.00,,,-99.99,open2300 version1.11,2013-06-19 00:45:00,
2013-06-18 20:55:00,62.8,43.9,30.05,NE,45,0.0,0.0,50,0.00,,,-99.99,open2300 version1.11,2013-06-19 00:55:00,
2013-06-18 21:00:00,62.4,43.5,30.05,East,90,0.0,0.0,50,0.00,,,-99.99,open2300 version1.11,2013-06-19 01:00:00,
2013-06-18 21:05:00,62.2,42.8,30.06,ENE,67,0.0,0.0,49,0.00,,,-99.99,open2300 version1.11,2013-06-19 01:05:00,
2013-06-18 21:10:00,62.1,43.2,30.06,ENE,67,0.0,0.0,50,0.00,,,-99.99,open2300 version1.11,2013-06-19 01:10:00,
2013-06-18 21:15:00,61.9,43.0,30.06,ENE,67,0.0,0.0,50,0.00,,,-99.99,open2300 version1.11,2013-06-19 01:15:00,
2013-06-18 21:20:00,61.5,43.2,30.06,ENE,67,0.0,0.0,51,0.00,,,-99.99,open2300 version1.11,2013-06-19 01:20:00,
2013-06-18 21:25:00,61.5,43.2,30.05,NE,45,0.0,0.0,51,0.00,,,-99.99,open2300 version1.11,2013-06-19 01:25:00,
2013-06-18 21:30:00,61.3,43.0,30.06,NE,45,0.0,0.0,51,0.00,,,-99.99,open2300 version1.11,2013-06-19 01:30:00,
2013-06-18 21:35:00,61.2,42.9,30.06,ENE,67,0.0,0.0,51,0.00,,,-99.99,open2300 version1.11,2013-06-19 01:35:00,
2013-06-18 21:40:00,61.0,43.2,30.06,ENE,67,0.0,0.0,52,0.00,,,-99.99,open2300 version1.11,2013-06-19 01:40:00,
2013-06-18 21:50:00,60.4,42.7,30.06,ENE,67,0.0,0.0,52,0.00,,,-99.99,open2300 version1.11,2013-06-19 01:50:00,
2013-06-18 22:00:00,60.1,42.9,30.06,ENE,67,0.0,0.0,53,0.00,,,-99.99,open2300 version1.11,2013-06-19 02:00:00,
2013-06-18 22:05:00,59.9,42.7,30.06,ENE,67,0.0,0.0,53,0.00,,,-99.99,open2300 version1.11,2013-06-19 02:05:00,
2013-06-18 22:10:00,59.7,42.5,30.07,ENE,67,0.0,0.0,53,0.00,,,-99.99,open2300 version1.11,2013-06-19 02:10:00,
2013-06-18 22:20:00,59.4,42.7,30.07,ENE,67,0.0,0.0,54,0.00,,,-99.99,open2300 version1.11,2013-06-19 02:20:00,
2013-06-18 22:25:00,59.2,43.0,30.08,ENE,67,0.0,0.0,55,0.00,,,-99.99,open2300 version1.11,2013-06-19 02:25:00,
2013-06-18 22:30:00,58.8,43.1,30.08,ENE,67,0.0,0.0,56,0.00,,,-99.99,open2300 version1.11,2013-06-19 02:30:00,
2013-06-18 22:35:00,58.5,42.8,30.08,ENE,67,0.0,0.0,56,0.00,,,-99.99,open2300 version1.11,2013-06-19 02:35:00,
2013-06-18 22:40:00,58.1,42.9,30.08,ENE,67,0.0,0.0,57,0.00,,,-99.99,open2300 version1.11,2013-06-19 02:40:00,
2013-06-18 22:50:00,57.7,43.1,30.08,ENE,67,0.0,0.0,58,0.00,,,-99.99,open2300 version1.11,2013-06-19 02:50:00,
2013-06-18 22:55:00,57.6,42.9,30.08,ENE,67,0.0,0.0,58,0.00,,,-99.99,open2300 version1.11,2013-06-19 02:55:00,
2013-06-18 23:05:00,57.4,42.3,30.08,ENE,67,0.0,0.0,57,0.00,,,-99.99,open2300 version1.11,2013-06-19 03:05:00,
2013-06-18 23:10:00,57.4,42.3,30.08,ENE,67,0.0,0.0,57,0.00,,,-99.99,open2300 version1.11,2013-06-19 03:10:00,
2013-06-18 23:15:00,57.0,41.9,30.08,ENE,67,0.0,0.0,57,0.00,,,-99.99,open2300 version1.11,2013-06-19 03:15:00,
2013-06-18 23:20:00,57.0,42.4,30.08,ENE,67,0.0,0.0,58,0.00,,,-99.99,open2300 version1.11,2013-06-19 03:20:00,
2013-06-18 23:30:00,56.8,42.7,30.08,ENE,67,0.0,0.0,59,0.00,,,-99.99,open2300 version1.11,2013-06-19 03:30:00,
2013-06-18 23:35:00,56.5,42.8,30.08,ENE,67,0.0,0.0,60,0.00,,,-99.99,open2300 version1.11,2013-06-19 03:35:00,
2013-06-18 23:45:00,56.1,42.4,30.08,ENE,67,0.0,0.0,60,0.00,,,-99.99,open2300 version1.11,2013-06-19 03:45:00,
2013-06-18 23:50:00,55.8,42.5,30.08,ENE,67,0.0,0.0,61,0.00,,,-99.99,open2300 version1.11,2013-06-19 03:50:00,
2013-06-18 23:55:00,55.4,42.5,30.08,ENE,67,0.0,0.0,62,0.00,,,-99.99,open2300 version1.11,2013-06-19 03:55:00,